Regional Weather Roundup
Issued by NWS

Home | Current Version | Previous Version | Graphics & Text | Print | Product List | Glossary On
Versions: 1 2 3 4 5 6 7 8 9 10 11 12 13 14 15 16 17 18 19 20 21 22 23 24 25 26 27 28 29 30 31 32 33 34 35 36 37 38 39 40 41 42 43 44 45 46 47 48 49 50
000
ASUS43 KOAX 220302
RWRNE

WEATHER ROUNDUP FOR NEBRASKA
NATIONAL WEATHER SERVICE OMAHA NE
1000 PM CDT FRI JUL 21 2017

NOTES: SATELLITE DATA IS BEING USED TO AUGMENT CLOUD COVER ABOVE
       12000 FEET.
       "FAIR" INDICATES FEW OR NO CLOUDS BELOW 12,000 FEET WITH NO
       SIGNIFICANT WEATHER AND/OR OBSTRUCTIONS TO VISIBILITY.


NEZ001>004-019>022-054>056-220400-
NEBRASKA PANHANDLE

CITY           SKY/WX    TMP DP  RH WIND       PRES   REMARKS
SCOTTSBLUFF    CLOUDY    82  50  32 W13       30.02R
ALLIANCE       MOCLDY    77  53  43 NW6       29.98R
CHADRON        CLOUDY    81  51  35 N3        29.95R
GORDON         FAIR      75  64  70 W3        29.97R
KIMBALL        MOCLDY    78  49  36 W22G28    30.16R
SIDNEY         MOCLDY    81  46  29 W8        30.07R
$$

NEZ057>060-069>072-079>082-220400-
SOUTHWEST NEBRASKA

CITY           SKY/WX    TMP DP  RH WIND       PRES   REMARKS
NORTH PLATTE   PTCLDY    81  58  45 W5        29.87R
IMPERIAL       CLOUDY    76  51  41 N8        29.91R
LEXINGTON      PTCLDY    82  78  88 CALM      29.82S HX  92
MCCOOK         PTCLDY    90  63  40 W8        29.84R HX  91
OGALLALA       CLEAR     83  46  26 N8        29.93R
$$

NEZ005>010-023>029-035>040-094-220400-
NORTH CENTRAL NEBRASKA

CITY           SKY/WX    TMP DP  RH WIND       PRES   REMARKS
VALENTINE      CLEAR     83  56  39 NW6       29.86R
AINSWORTH      CLEAR     80  71  74 S5        29.87R
BROKEN BOW     CLOUDY    79  66  64 VRB3      29.85R
O`NEILL        CLOUDY    81  70  69 SW7       29.79F
ORD            CLOUDY    76  68  76 CALM      29.78R
THEDFORD       CLOUDY    87  71  58 E9        29.91R HX  92
$$

NEZ041-046>049-061>064-073>077-083>087-220400-
SOUTH CENTRAL NEBRASKA

CITY           SKY/WX    TMP DP  RH WIND       PRES   REMARKS
GRAND ISLAND   CLOUDY    82  73  74 N6        29.79R
AURORA         CLOUDY    83  79  87 CALM      29.78S HX  94
HASTINGS       CLEAR     85  75  72 SE3       29.79S HX  93
HEBRON         CLEAR     85  71  61 S8        29.76R HX  90
HOLDREGE       PTCLDY    83  77  84 CALM      29.81S THUNDER HX  91
KEARNEY        CLOUDY    86  79  79 CALM      29.80S HX  99
YORK           PTCLDY    82  77  83 N7        29.78R HX  91
$$

NEZ011>018-030>034-042>045-220400-
NORTHEAST NEBRASKA

CITY           SKY/WX    TMP DP  RH WIND       PRES   REMARKS
NORFOLK        CLOUDY    85  73  67 W9        29.74F HX  91
ALBION         CLOUDY    74  70  89 CALM      29.77F
BLAIR          CLOUDY    88  77  71 CALM      29.74S HX 100
COLUMBUS       CLOUDY    82  77  84 NW3       29.76S HX  90
FREMONT        CLOUDY    87  78  75 CALM      29.74S HX  99
TEKAMAH        CLOUDY    85  80  85 N5        29.71R HX  99
WAYNE          CLOUDY    83  82  99 CALM      29.73R HX  98
$$

NEZ050>053-065>068-078-088>093-220400-
SOUTHEAST NEBRASKA

CITY           SKY/WX    TMP DP  RH WIND       PRES   REMARKS
LINCOLN        CLEAR     88  73  61 S8        29.74R HX  95
OMAHA EPPLEY   CLOUDY    89  75  63 N3        29.71S HX  99
BEATRICE       CLEAR     91  67  45 S10       29.75R HX  94
NEBRASKA CITY  CLEAR     82  73  72 S8        29.75R
PLATTSMOUTH    CLEAR     86  71  59 S12       29.73S HX  91
$$

NEZ044-045-051>053-067-220400-
OMAHA AREA

CITY           SKY/WX    TMP DP  RH WIND       PRES   REMARKS
OMAHA EPPLEY   CLOUDY    89  75  63 N3        29.71S HX  99
BLAIR          CLOUDY    88  77  71 CALM      29.74S HX 100
FREMONT        CLOUDY    87  78  75 CALM      29.74S HX  99
MILLARD        CLOUDY    89  80  74 CALM      29.73R HX 105
OFFUTT AFB     CLEAR     86  73  64 S8        29.71S HX  92
PLATTSMOUTH    CLEAR     86  71  59 S12       29.73S HX  91
WAHOO          FAIR      83  80  90 CALM      29.73S HX  94
$$




USA.gov is the U.S. government's official web portal to all federal, state and local government web resources and services.